Location: Boiro
(42.6475°N, 8.8834°W)
Time: 07:13:19
(UTC+02:00)

SL-8 DEB - Pass Details

Date: 06 July 2022
Orbit: 890 x 1013 km, 83.1° (Epoch: 16 August)

Event Time Altitude Azimuth Distance (km) Brightness Sun altitude
Rises 02:31:42 0° 336° (NNW) 3,583 ? -24.6°
Reaches altitude 10° 02:35:02 10° 318° (NW) 2,613 ? -24.6°
Maximum altitude 02:38:42 17° 279° (W) 2,116 ? -24.6°
Enters shadow 02:40:56 14° 253° (WSW) 2,293 ? -24.6°
